Horntown, VA

6:52 PM EDT on September 26, 2016 (GMT -0400)
Wallops Flight Facility

Weather History for KWAL - November, 2012

Change the Weather History Date:

Wednesday, November 7, 2012

  Actual Average Record
Temperature  
Mean Temperature 43 °F 52 °F  
Max Temperature 47 °F 61 °F 70 °F (2015)
Min Temperature 38 °F 43 °F 28 °F (1967)
Degree Days  
Heating Degree Days 22    
Month to date heating degree days 132  
Since 1 July heating degree days 300  
Cooling Degree Days 0    
Month to date cooling degree days 0  
Year to date cooling degree days 1616  
Moisture  
Dew Point 35 °F    
Average Humidity 74    
Maximum Humidity 82    
Minimum Humidity 65    
Precipitation  
Precipitation 0.37 in 0.10 in 1.40 in (1997)
Month to date precipitation 0.37 0.69  
Year to date precipitation 44.99 35.23  
Sea Level Pressure  
Sea Level Pressure 29.82 in    
Wind  
Wind Speed 14 mph (North)    
Max Wind Speed 22 mph    
Max Gust Speed 33 mph    
Visibility 10 miles    
Events Rain    
T = Trace of Precipitation, MM = Missing Value Source: NWS Daily Summary

Daily Weather History Graph

Daily Weather History Graph

Search for Another Location

Airport or City:

Trip Planner

Search our weather history database for the weather conditions in past years. The results will help you decide how hot, cold, wet, or windy it might be!

Date:

Astronomy

Nov. 07, 2012 Rise Set
Actual Time 6:34 AM EST 4:56 PM EST
Civil Twilight 6:06 AM EST 5:23 PM EST
Nautical Twilight 5:35 AM EST 5:55 PM EST
Astronomical Twilight 5:04 AM EST 6:26 PM EST
Moon No Moon Rise 12:57 PM EST (11/7)
Length of Visible Light 11h 17m
Length of Day
10h 22m
Last Quarter, 43% of the Moon is Illuminated
Nov 7
Last Quarter
Nov 13
New
Nov 20
First Quarter
Nov 28
Full
Dec 6
Last Quarter

Hourly Weather History & Observations

Time (EST) Temp. Windchill Dew Point Humidity Pressure Visibility Wind Dir Wind Speed Gust Speed Precip Events Conditions
12:54 AM 46.0 °F 39.3 °F 35.1 °F 66% 29.86 in - NNE 16.1 mph 25.3 mph N/A   Overcast
1:33 AM 44.1 °F 36.8 °F 36.0 °F 73% 29.85 in - NNE 16.1 mph 23.0 mph 0.01 in Rain Light Rain
1:54 AM 44.1 °F 37.1 °F 36.0 °F 73% 29.84 in - NNE 15.0 mph - 0.02 in Rain Light Rain
2:54 AM 44.1 °F 37.7 °F 36.0 °F 73% 29.83 in - NNE 12.7 mph - 0.01 in Rain Light Rain
3:54 AM 43.0 °F 35.7 °F 37.0 °F 80% 29.81 in - NNE 15.0 mph 24.2 mph 0.10 in Rain Light Rain
4:54 AM 42.1 °F 34.9 °F 36.0 °F 79% 29.81 in - North 13.8 mph 20.7 mph 0.12 in Rain Light Rain
5:40 AM 42.1 °F 34.9 °F 36.0 °F 79% 29.83 in - North 13.8 mph 19.6 mph 0.06 in Rain Light Rain
5:54 AM 42.1 °F 34.9 °F 36.0 °F 79% 29.81 in - North 13.8 mph 24.2 mph 0.07 in Rain Light Rain
6:28 AM 41.0 °F 33.5 °F 36.0 °F 82% 29.81 in - North 13.8 mph 21.9 mph 0.02 in Rain Light Rain
6:54 AM 41.0 °F 33.1 °F 36.0 °F 82% 29.80 in - North 15.0 mph 23.0 mph 0.02 in Rain Light Rain
7:54 AM 43.0 °F 36.4 °F 37.0 °F 80% 29.81 in 10.0 mi North 12.7 mph 21.9 mph 0.01 in Rain Light Rain
8:12 AM 43.0 °F 36.4 °F 37.0 °F 80% 29.82 in 10.0 mi North 12.7 mph 23.0 mph 0.00 in   Overcast
8:54 AM 43.0 °F 36.0 °F 37.0 °F 80% 29.81 in 10.0 mi North 13.8 mph 26.5 mph 0.00 in   Overcast
9:18 AM 44.1 °F 36.8 °F 37.0 °F 76% 29.81 in 10.0 mi North 16.1 mph 24.2 mph N/A   Overcast
9:54 AM 45.0 °F 37.9 °F 37.0 °F 74% 29.79 in 10.0 mi North 16.1 mph 26.5 mph N/A   Mostly Cloudy
10:03 AM 46.9 °F - 37.0 °F 68% 29.80 in - NNE 15.0 mph 24.2 mph N/A   Scattered Clouds
10:54 AM 46.9 °F - 36.0 °F 66% 29.80 in - North 13.8 mph 25.3 mph N/A   Overcast
11:54 AM 45.0 °F 38.5 °F 35.1 °F 68% 29.80 in 10.0 mi North 13.8 mph 23.0 mph N/A   Overcast
12:54 PM 45.0 °F 38.9 °F 34.0 °F 65% 29.78 in - North 12.7 mph 23.0 mph N/A   Overcast
1:54 PM 44.1 °F 36.8 °F 34.0 °F 68% 29.78 in - North 16.1 mph 25.3 mph 0.00 in Rain Light Rain
2:54 PM 42.1 °F 35.2 °F 35.1 °F 76% 29.79 in - North 12.7 mph 19.6 mph 0.00 in Rain Light Rain
3:03 PM 42.1 °F 35.7 °F 35.1 °F 76% 29.80 in - North 11.5 mph - 0.00 in Rain Light Rain
3:54 PM 41.0 °F 32.5 °F 34.0 °F 76% 29.81 in - North 17.3 mph 24.2 mph 0.00 in Rain Light Rain
4:54 PM 39.9 °F 31.1 °F 33.1 °F 77% 29.81 in - North 17.3 mph 26.5 mph 0.02 in Rain Light Rain
5:13 PM 39.9 °F 31.8 °F 33.1 °F 77% 29.82 in - North 15.0 mph 26.5 mph 0.00 in Rain Light Rain
5:54 PM 39.0 °F 31.0 °F 33.1 °F 79% 29.82 in - North 13.8 mph 27.6 mph 0.00 in Rain Light Rain
6:17 PM 39.0 °F 30.6 °F 32.0 °F 76% 29.83 in - North 15.0 mph 25.3 mph 0.00 in   Overcast
6:38 PM 39.0 °F 30.6 °F 32.0 °F 76% 29.84 in - North 15.0 mph 20.7 mph 0.00 in   Overcast
6:54 PM 39.0 °F 31.8 °F 32.0 °F 76% 29.83 in - North 11.5 mph 23.0 mph 0.00 in   Overcast
7:06 PM 37.9 °F 30.9 °F 32.0 °F 79% 29.84 in - North 10.4 mph 20.7 mph N/A   Overcast
7:54 PM 39.0 °F 31.8 °F 32.0 °F 76% 29.84 in - North 11.5 mph - N/A   Overcast
8:54 PM 39.0 °F 31.8 °F 32.0 °F 76% 29.84 in - North 11.5 mph - N/A   Overcast
9:54 PM 39.0 °F 31.4 °F 32.0 °F 76% 29.83 in - North 12.7 mph 19.6 mph N/A   Overcast
10:54 PM 39.0 °F 32.3 °F 32.0 °F 76% 29.83 in - North 10.4 mph - 0.00 in   Overcast
11:54 PM 39.0 °F 32.8 °F 30.9 °F 73% 29.84 in - North 9.2 mph 21.9 mph N/A   Overcast